World > North America > United States > Wyoming > Encampment  

Encampment, WY Hourly Weather Updates

Feedback E-mail the Weather

Quick Clicks

Encampment, WY Weather Maps

°F °C°F °C
Encampment Weather Map
UTC Time: 4/24/2024, 00:57
Your Time:

Encampment, WY Regional Weather

Expires:202404240100;;264468
ASUS45 KCYS 240010
RWRWY 

WYOMING REGIONAL WEATHER ROUNDUP
NATIONAL WEATHER SERVICE CHEYENNE WY
600 PM MDT TUE APR 23 2024

NOTE:  "FAIR" INDICATES FEW OR NO CLOUDS BELOW 12,000 FEET
WITH NO SIGNIFICANT WEATHER AND/OR OBSTRUCTIONS TO VISIBILITY.


WYZ021-027>030-104>119-240100-
...SOUTHERN WYOMING...
  
CITY           SKY/WX    TMP DP  RH WIND       PRES   REMARKS
EVANSTON       PTSUNNY   64  28  25 W14G20    30.03S                  
6HR MIN TEMP:  59; 6HR MAX TEMP:  69;                                

KEMMERER       FAIR      57  23  26 N12       30.06S                  
FORT BRIDGER   CLOUDY    62  24  23 N8G16     30.08R                  
ROCK SPRINGS   CLOUDY    59  32  36 SW16G33   30.03R                  
6HR MIN TEMP:  54; 6HR MAX TEMP:  67;                                

DIXON          FAIR      64  30  28 N14       30.05F                  
RAWLINS        FAIR      61  27  27 SW13      30.04F                  
6HR MIN TEMP:  55; 6HR MAX TEMP:  64;                                

SARATOGA       CLOUDY    52  30  43 NW5       30.09S                  
LARAMIE        FAIR      55  29  36 SW7       30.10R                  
6HR MIN TEMP:  54; 6HR MAX TEMP:  59; 6HR PCP: TRACE;                

CHEYENNE       FAIR      54  28  36 S13G23    30.11R                  
6HR MIN TEMP:  51; 6HR MAX TEMP:  58;                                

TORRINGTON     FAIR      63  19  18 SE7       30.06F                  
6HR MIN TEMP:  58; 6HR MAX TEMP:  65;                                

PINE BLUFFS      N/A     59  19  21 S8G17     30.10S                  

$$
  

SKY/WX - Weather  TMP - Temperature  DP - Dew Point  RH - Humidity
WIND - Wind Direction/Speed PRES - Barometric Pressure VSB - Visibility
WCI - Wind Chill Index E13G22 Wind - East Wind 13 mph/Gusts of 22 mph

Trending Headlines

Trending Entertainment Headlines

Encampment Radar Loop

Use the map search tool if you want to place a location marker on the radar map...

Encampment Quick Facts

National Two Day Weather Forecast


E-mail the Encampment Weather Forecast

Voice your opinion or tell us about page issues...